千帆星座-102(QIANFAN-102)

导读 | 豆包AI

QIANFAN-102是中国于2025年10月17日发射的低轨通信卫星,隶属于G60千帆星座(中国版“星链”项目)。该星座由上海垣信卫星科技主导建设,计划构建超1.4万颗低轨宽频多媒体卫星网络,目标2025年实现区域组网、2030年完成全球覆盖。QIANFAN-102将为星座提供稳定高速的卫星互联网服务,助力填补偏远地区数字鸿沟,推动我国低轨卫星通信产业发展。

基本信息
目录编号:
66044
目录名称:
QIANFAN-102
国际标识:
2025-233M
轨道中心:
EARTH
卫星名称:
千帆星座-102
卫星全名:
千帆星座-102(QIANFAN-102)
卫星状态:
在轨 (已飞行169 天)
发射日期:
2025-10-17 UTC
国别 :
中国 (CN)
星等 :
--
轨道信息
数据来源 国际轨道数据 AOE轨道数据
星历时间 2026-04-04T03:40:09+0800
9小时前
查看轨道信息
2026-04-01T15:00:00+0800
2天前
查看轨道信息
半长轴 7446.691km 7446.701km
偏心率 0.000233 0.0002608
轨道倾角 88.999° 88.994°
近地点辐角 80.247° 64.409°
升交点赤经 50.606° 50.864°
平近点角 279.895° 248.354°
近地点 1066.818km 1066.621km
远地点 1070.29km 1070.507km
周期 106.587分钟 106.587分钟
每日圈数 13.510077 13.510048
详细信息
卫星平台:
102
覆盖范围:
全球
运营商:
上海垣信卫星科技有限公司
运营商所在国:
中国
使用方式:
暂无
卫星简介
千帆星座,也被称为“G60星链”计划,是中国版“星链”的重要组成部分,旨在打造一个由1.4万多颗低轨宽频多媒体卫星构成的庞大星座。千帆星座计划由上海垣信卫星科技有限公司负责实施,于2023年启动建设。该项目是我国第二个低轨卫星大星座,旨在通过构建庞大的卫星网络,为全球用户提供高质量的通信和宽带互联网服务。
2D轨道图
3D轨道图
轨道高度分析图
轨道倾角分析图
轨道综合分析图
查看轨道综合分析图